Location: Unspecified
(33.6682°S, 0.0000°E)
Time: 19:10:01
(UTC+00:00)

S-56A Canister/Altair - Pass Details

Date: 25 June 2019
Orbit: 632 x 2500 km, 38.9° (Epoch: 20 July)

Event Time Altitude Azimuth Distance (km) Brightness Sun altitude
Exits shadow 03:18:55 48° 113° (ESE) 2,022 9.7 -46.1°
Drops below altitude 10° 03:26:58 10° 110° (ESE) 4,420 11.9 -44.4°
Sets 03:31:07 0° 110° (ESE) 5,671 12.7 -43.5°
